LKPO Weather Reports


time (UTC)temp
C
wind
direction
speed
KPH
gust
KPH
rain 1hr
cm
rain 24hr
cm
rain mn
cm
humidity
%
barometer
mb
20260905192550 18 300 8.0 0.0 0.00 0.00 0.00 48
20260905182138 20 310 8.0 0.0 0.00 0.00 0.00 45
20260905172234 22 310 14.5 0.0 0.00 0.00 0.00 40
20260905162542 22 270 25.7 0.0 0.00 0.00 0.00 37
20260905152028 23 280 25.7 0.0 0.00 0.00 0.00 33
20260905142026 23 270 29.0 0.0 0.00 0.00 0.00 33
20260905132345 23 280 22.5 0.0 0.00 0.00 0.00 36
20260905122242 22 300 22.5 0.0 0.00 0.00 0.00 40
20260905112147 22 290 19.3 0.0 0.00 0.00 0.00 43
20260905102602 21 270 22.5 0.0 0.00 0.00 0.00 49
20260905092130 17 240 8.0 0.0 0.00 0.00 0.00 63
20260905082200 17 250 11.3 0.0 0.00 0.00 0.00 67
20260905072500 16 270 11.3 0.0 0.00 0.00 0.00 77
20260905062201 17 280 25.7 0.0 0.00 0.00 0.00 72
20260905052158 17 270 11.3 0.0 0.00 0.00 0.00 77
20260905042601 17 310 19.3 0.0 0.00 0.00 0.00 77
20260905032200 20 310 25.7 0.0 0.00 0.00 0.00 56
20260905022200 21 310 22.5 0.0 0.00 0.00 0.00 56
20260905012527 22 300 35.4 53.1 0.00 0.00 0.00 56
20260905002214 22 210 14.5 0.0 0.00 0.00 0.00 49
20260904232246 23 210 14.5 0.0 0.00 0.00 0.00 47
20260904222615 23 210 14.5 0.0 0.00 0.00 0.00 47
20260904212159 23 220 14.5 0.0 0.00 0.00 0.00 47
20260904202158 25 220 14.5 0.0 0.00 0.00 0.00 47